This is the latest recevied weather packets stored in our database for station/object IZ1OSY-3. If no packets are shown the sender has not sent any weather packets the latest 1 day(s).
| Time | Temp. | Humidity | Pressure | Rain* | Wind** | Luminosity | Snow |
|---|---|---|---|---|---|---|---|
| 1778078161 | 12.22° C | 99% | 1007.9 hPa | - | - | - | - |
| 1778076960 | 12.78° C | 99% | 1007.9 hPa | - | - | - | - |
| 1778074855 | 12.78° C | 99% | 1008 hPa | - | - | - | - |
| 1778073654 | 12.78° C | 99% | 1008 hPa | - | - | - | - |
| 1778072157 | 12.78° C | 99% | 1008.2 hPa | - | - | - | - |
| 1778070956 | 13.33° C | 99% | 1007.9 hPa | - | - | - | - |
| 1778069755 | 12.78° C | 99% | 1007.8 hPa | - | - | - | - |
| 1778067650 | 12.78° C | 99% | 1007.4 hPa | - | - | - | - |
| 1778066449 | 12.78° C | 99% | 1007.6 hPa | - | - | - | - |
| 1778064952 | 12.78° C | 99% | 1007.6 hPa | - | - | - | - |
| 1778063751 | 12.78° C | 99% | 1007.7 hPa | - | - | - | - |
| 1778060445 | 12.78° C | 99% | 1007.7 hPa | - | - | - | - |
| 1778059244 | 12.22° C | 99% | 1007.7 hPa | - | - | - | - |
| 1778058043 | 12.22° C | 99% | 1007.5 hPa | - | - | - | - |
| 1778056842 | 11.67° C | 99% | 1007.7 hPa | - | - | - | - |
| 1778056546 | 11.67° C | 99% | 1007.7 hPa | - | - | - | - |
| 1778054440 | 11.11° C | 99% | 1007.8 hPa | - | - | - | - |
| 1778054144 | 10.56° C | 99% | 1007.6 hPa | - | - | - | - |
| 1778052944 | 10.56° C | 99% | 1007.9 hPa | - | - | - | - |
| 1778052039 | 10° C | 99% | 1007.6 hPa | - | - | - | - |
| 1778051742 | 10° C | 99% | 1007.6 hPa | - | - | - | - |
| 1778050838 | 10° C | 99% | 1007.3 hPa | - | - | - | - |
| 1778049638 | 9.44° C | 99% | 1006.7 hPa | - | - | - | - |
| 1778048436 | 9.44° C | 99% | 1006.7 hPa | - | - | - | - |
| 1778046939 | 8.89° C | 99% | 1007.7 hPa | - | - | - | - |
* Rain since midnight (hover to see other rain measurements)
** Current wind speed in m/s (hover to see current wind gust speed)